This is the latest recevied weather packets stored in our database for station/object DL3NDS-WX. If no packets are shown the sender has not sent any weather packets the latest 10 day(s).
| Time | Temp. | Humidity | Pressure | Rain* | Wind** | Luminosity | Snow |
|---|---|---|---|---|---|---|---|
| 1787933020 | 19.44° C | 87% | 1015.3 hPa | 2.29 mm | - | 40 W/m² | - |
| 1787932907 | 19.44° C | 87% | 1015.3 hPa | 2.29 mm | - | 42 W/m² | - |
| 1787932845 | 19.44° C | 87% | 1015.3 hPa | 2.29 mm | - | 42 W/m² | - |
| 1787932783 | 19.44° C | 87% | 1015.3 hPa | 2.03 mm | - | 46 W/m² | - |
| 1787932722 | 19.44° C | 87% | 1015.5 hPa | 2.03 mm | - | 46 W/m² | - |
| 1787932661 | 19.44° C | 87% | 1015.3 hPa | 2.03 mm | - | 47 W/m² | - |
| 1787932599 | 19.44° C | 87% | 1015.3 hPa | 2.03 mm | - | 49 W/m² | - |
| 1787932538 | 19.44° C | 87% | 1015.3 hPa | 1.78 mm | - | 51 W/m² | - |
| 1787932485 | 19.44° C | 87% | 1015.3 hPa | 1.78 mm | - | 58 W/m² | - |
| 1787932411 | 19.44° C | 87% | 1015.3 hPa | 1.78 mm | - | 69 W/m² | - |
| 1787932354 | 19.44° C | 87% | 1015.4 hPa | 1.52 mm | - | 74 W/m² | - |
| 1787932293 | 19.44° C | 87% | 1015.4 hPa | 1.52 mm | - | 83 W/m² | - |
| 1787932231 | 19.44° C | 87% | 1015.4 hPa | 1.52 mm | - | 90 W/m² | - |
| 1787932170 | 19.44° C | 87% | 1015.3 hPa | 1.52 mm | - | 91 W/m² | - |
| 1787932108 | 19.44° C | 88% | 1015.4 hPa | 1.52 mm | - | 91 W/m² | - |
| 1787932047 | 19.44° C | 88% | 1015.4 hPa | 1.52 mm | - | 91 W/m² | - |
| 1787931986 | 19.44° C | 87% | 1015.3 hPa | 1.52 mm | - | 98 W/m² | - |
| 1787931925 | 19.44° C | 88% | 1015.3 hPa | 1.52 mm | - | 125 W/m² | - |
| 1787931860 | 19.44° C | 87% | 1015.3 hPa | 1.52 mm | - | 141 W/m² | - |
| 1787931802 | 19.44° C | 87% | 1015.3 hPa | 1.52 mm | - | 146 W/m² | - |
| 1787931740 | 19.44° C | 87% | 1015.2 hPa | 1.52 mm | - | 156 W/m² | - |
| 1787931678 | 19.44° C | 87% | 1015.1 hPa | 1.27 mm | - | 162 W/m² | - |
| 1787931618 | 19.44° C | 87% | 1015.1 hPa | 1.27 mm | - | 158 W/m² | - |
| 1787931557 | 19.44° C | 87% | 1015.1 hPa | 1.27 mm | - | 146 W/m² | - |
| 1787931501 | 19.44° C | 87% | 1015.1 hPa | 1.27 mm | - | 137 W/m² | - |
* Rain latest hour (hover to see other rain measurements)
** Current wind speed in m/s (hover to see current wind gust speed)